Location: Newark
(60.7728°N, 46.2261°E)
Time: 17:43:02
(UTC+00:00)

ISS - Pass Details

Date: 30 September 2019
Orbit: 411 x 421 km, 51.6° (Epoch: 15 October)

Event Time Altitude Azimuth Distance (km) Brightness Sun altitude
Rises 16:14:10 0° 252° (WSW) 2,347 1.0 -13.2°
Reaches altitude 10° 16:16:47 10° 230° (SW) 1,483 -0.6 -13.5°
Maximum altitude 16:18:56 16° 190° (S) 1,163 -1.6 -13.8°
Enters shadow 16:20:09 14° 164° (SSE) 1,275 -1.6 -13.9°
